Theta_e
319 319 320 320 320 320 320 320 319 319 319 319 320 319 319 318 316 307 305 309 307 301 302 307 308 305 304 302 298 300 299 302 301 298 297 296 297 300 298 299 297 296 295 293 294 292 293 313 311 303 305 311 316 317
318 319 319 319 319 319 320 319 319 318 318 319 319 319 318 317 316 311 303 307 309 304 304 308 310 312 310 309 304 300 301 300 303 299 298 298 297 299 297 295 301 297 299 298 298 298 305 311 310 313 315 313 314 316
317 317 318 318 318 319 319 319 319 318 318 319 319 319 318 317 316 311 302 303 305 302 304 303 306 308 311 312 311 303 301 305 303 305 301 299 296 299 295 298 299 302 305 301 302 303 308 311 313 315 318 318 319 320
316 316 317 317 317 318 318 319 319 318 318 318 318 319 318 317 315 313 304 303 305 303 298 303 312 309 312 310 311 309 307 305 305 304 300 299 298 301 297 299 300 302 305 301 301 305 307 311 313 315 318 321 321 322
314 315 315 316 316 317 318 318 318 318 318 318 318 318 318 317 314 308 303 304 307 305 298 300 306 308 309 309 310 309 307 305 303 301 300 299 300 301 299 300 298 306 304 301 301 306 308 310 315 321 320 320 320 321
313 313 313 314 315 316 317 317 318 317 317 317 318 317 317 315 312 306 305 309 307 309 301 296 303 305 309 309 308 306 306 304 304 303 301 301 303 303 297 295 302 305 308 307 307 312 312 315 317 320 320 320 322 322
312 313 313 314 315 315 316 316 317 317 316 316 316 316 315 313 306 306 305 309 307 307 302 297 297 304 308 307 307 307 307 306 306 303 302 303 304 304 298 296 304 306 310 311 312 313 311 313 313 316 319 322 323 324
311 312 313 313 314 315 315 316 316 316 316 315 315 315 314 312 309 305 308 309 308 304 303 295 296 301 306 303 303 305 304 304 304 304 303 302 302 301 298 303 305 309 311 309 311 314 313 314 314 323 324 325 325 326
310 311 312 313 313 314 315 316 316 315 315 315 315 314 309 306 304 306 315 312 309 305 298 296 293 295 305 301 302 305 304 300 304 301 301 302 298 298 303 304 305 308 308 309 312 314 314 312 313 321 324 323 324 324
309 310 311 312 312 313 315 315 315 314 313 314 310 306 303 306 315 315 307 303 307 307 304 299 298 296 300 299 300 301 301 299 298 301 304 299 299 304 306 306 307 308 309 312 312 310 313 316 319 320 321 323 323 323
310 310 311 312 313 313 314 314 313 312 312 308 304 304 310 318 307 303 301 302 303 301 303 302 298 296 302 298 297 300 298 299 296 299 301 298 298 305 310 314 314 309 311 312 314 316 319 320 318 318 319 318 318 319
309 310 311 312 313 314 313 312 312 310 310 308 309 312 311 306 302 300 299 302 301 297 298 297 298 299 300 302 299 300 297 298 294 302 300 297 301 309 312 314 314 309 311 314 319 319 320 320 319 317 315 315 315 317
309 309 310 311 313 312 312 311 311 311 311 311 307 306 303 303 292 295 293 297 299 299 300 300 299 300 299 301 299 299 298 296 301 297 296 300 308 312 312 314 314 312 316 320 319 320 319 319 318 315 314 315 316 316
308 309 310 311 312 311 311 311 311 310 306 303 302 294 296 295 297 295 294 297 300 301 301 301 300 300 300 299 298 296 299 300 295 294 296 306 308 310 313 314 315 317 318 318 317 317 317 316 316 316 316 316 316 315
308 310 311 311 311 311 311 310 310 308 304 300 300 292 296 297 297 299 301 300 301 302 301 301 303 302 299 298 298 298 296 296 297 296 305 306 307 309 313 315 314 315 314 315 316 316 316 318 316 315 316 315 315 316
309 309 307 309 310 310 310 309 307 306 303 301 300 296 294 294 295 297 298 299 301 303 306 306 302 303 302 300 297 297 297 296 298 302 304 305 305 309 315 317 319 320 318 318 317 318 318 318 315 315 315 315 315 316
308 302 308 309 309 309 309 305 303 299 296 298 296 296 296 297 297 299 301 301 302 305 303 304 302 300 304 299 298 299 297 300 302 303 304 305 309 310 310 314 317 318 318 319 318 319 318 317 316 315 315 316 316 316
301 304 308 309 307 305 304 303 300 297 293 297 296 295 299 301 299 299 300 300 301 300 303 302 305 299 296 298 300 302 303 304 303 303 305 307 310 310 311 308 310 313 316 316 318 317 317 315 314 313 314 315 314 316
303 305 308 307 305 301 297 297 299 292 294 298 298 297 298 298 300 301 301 302 301 305 302 303 300 299 300 301 300 301 302 303 303 303 304 305 306 309 309 307 308 309 312 312 312 311 311 312 312 313 313 314 315 316
306 307 307 307 306 299 295 296 301 295 293 296 296 295 296 296 297 297 299 299 299 298 298 299 300 303 302 304 304 306 308 309 307 304 302 303 305 305 305 305 306 307 307 308 308 305 309 307 309 310 312 313 314 315
304 305 307 305 301 300 298 296 295 296 296 294 296 296 295 296 295 295 295 297 295 295 294 298 299 301 304 304 304 306 305 304 303 303 303 302 304 305 304 305 305 304 303 304 304 305 303 306 308 310 310 311 313 313
301 306 302 302 297 297 296 299 295 297 294 294 293 294 292 292 293 295 297 291 290 293 298 299 300 301 301 301 302 302 305 304 304 303 301 301 302 302 302 304 303 304 304 305 305 305 307 308 309 309 309 310 308 311
304 302 298 297 292 291 291 298 295 296 292 294 294 291 291 291 293 297 292 292 294 298 300 300 301 301 301 302 302 302 303 302 301 301 302 302 304 304 303 305 305 305 305 306 308 307 308 305 307 308 309 309 309 309
304 296 292 291 290 287 293 291 293 293 295 293 293 291 293 294 295 290 289 292 296 297 296 297 300 298 297 297 298 300 301 301 302 302 303 302 302 304 305 306 307 307 308 309 309 309 308 308 305 308 309 309 309 309
291 289 290 286 290 289 289 288 290 290 288 290 290 290 292 296 292 290 289 292 294 295 297 297 296 299 299 299 299 299 301 301 300 300 304 304 305 304 304 305 306 307 309 307 307 307 307 308 309 309 310 309 309 310
285 290 287 289 288 288 289 288 289 289 291 289 289 291 291 289 287 287 291 293 294 295 295 295 297 296 297 299 299 298 301 301 302 301 304 303 305 304 304 303 304 306 307 308 308 308 308 309 309 310 309 309 302 306
285 288 291 295 294 292 291 292 291 289 287 287 288 288 289 287 288 292 295 297 296 298 301 301 299 298 299 299 300 302 301 302 303 303 305 305 306 306 306 304 304 307 310 310 310 309 309 310 310 311 311 312 312 313
289 291 289 290 293 292 288 288 287 288 289 291 290 288 289 290 290 295 298 300 300 301 300 302 302 301 301 301 302 302 302 302 303 305 305 305 306 307 307 308 309 303 307 309 310 311 311 311 311 312 311 311 312 316
290 291 289 290 291 292 292 291 290 292 294 292 290 290 292 295 298 298 300 300 299 298 298 298 299 299 300 301 301 301 301 300 300 300 300 299 300 302 305 306 306 307 308 309 301 302 310 311 311 312 312 311 312 313
287 291 290 290 290 290 292 293 293 295 296 296 296 294 293 294 296 299 298 298 297 297 298 298 299 298 298 298 298 299 300 301 301 301 300 299 300 304 304 305 306 307 308 310 310 310 300 302 305 310 308 309 310 311
290 290 289 288 288 291 293 295 294 294 294 293 295 293 294 296 297 297 297 299 299 298 297 297 297 298 297 297 296 296 298 302 300 301 302 303 303 303 304 305 306 307 307 307 307 307 307 306 308 308 309 308 309 307
287 287 287 285 286 290 291 290 291 291 291 291 292 292 292 292 291 295 298 302 297 295 296 297 298 302 304 304 304 303 297 304 305 305 304 303 302 303 304 304 304 305 306 306 305 306 306 306 307 308 309 311 310 311
287 287 286 286 286 287 288 289 289 289 289 290 291 292 293 292 291 296 305 307 304 303 304 306 306 308 310 310 310 310 306 313 309 299 297 296 295 298 302 304 305 307 307 306 306 306 306 306 306 307 308 309 310 310
Wind_Speed
12 11 11 10 10 10 10 9 9 10 9 8 8 10 12 14 15 5 1 4 3 1 6 5 3 4 1 2 2 4 4 4 4 5 3 1 1 1 2 2 1 2 3 1 2 2 4 3 1 4 4 2 1 3
12 11 11 11 11 10 10 10 9 8 9 9 7 7 8 10 12 7 2 2 1 3 6 3 6 5 4 6 5 1 3 2 3 4 1 1 1 1 2 2 1 1 5 4 7 6 3 3 4 3 3 3 2 3
9 10 11 11 11 11 11 11 10 10 8 8 8 7 6 7 8 5 1 3 2 3 5 4 4 1 2 7 4 4 3 3 1 3 4 1 1 3 1 4 1 1 3 1 3 3 5 5 5 5 2 4 4 3
8 9 9 10 11 11 11 12 11 10 10 8 7 7 7 6 6 4 1 1 2 2 1 7 2 4 1 4 6 4 4 3 5 3 2 2 2 3 3 3 3 4 4 3 5 8 7 6 6 5 2 3 4 4
11 10 9 11 11 11 12 12 12 11 10 9 8 6 6 7 7 2 1 1 1 3 3 7 9 3 6 3 7 5 5 3 2 2 2 3 2 2 0 1 4 6 7 5 6 4 2 5 5 2 3 4 6 3
12 11 11 11 12 12 13 13 13 12 10 10 9 7 5 4 6 1 3 1 1 2 2 5 4 5 5 3 5 6 5 3 3 4 3 3 4 3 1 3 7 4 4 6 3 3 5 8 7 4 4 5 6 5
14 13 13 12 12 13 13 13 13 13 11 10 9 8 5 2 2 2 3 2 2 1 3 6 7 5 4 3 2 3 2 2 3 3 2 3 2 4 2 5 7 6 8 6 6 2 5 3 4 7 4 5 3 3
14 15 15 14 14 13 13 14 13 12 11 10 10 8 5 2 3 3 2 7 5 3 2 2 6 5 4 2 1 1 3 2 1 2 1 2 1 1 5 10 5 8 9 4 8 9 7 2 6 6 1 3 6 6
15 16 16 15 14 14 14 13 12 10 10 10 9 7 2 1 2 3 4 11 1 3 3 3 3 4 5 2 1 2 2 1 1 2 3 4 1 6 10 7 6 7 7 7 5 7 5 6 6 6 3 6 6 7
15 14 14 15 15 15 14 11 10 10 8 9 4 3 3 4 5 10 2 2 1 1 1 4 2 4 2 2 1 2 2 2 1 4 3 2 5 8 6 7 8 7 6 6 4 2 5 3 4 2 4 4 2 3
13 13 14 15 14 13 13 11 10 9 6 3 4 4 2 8 3 1 3 3 3 4 5 4 7 3 1 2 2 1 2 1 0 4 4 2 5 4 7 10 8 8 7 6 2 2 3 6 6 5 3 3 5 5
14 13 12 13 14 16 15 13 12 6 3 3 2 2 3 3 2 4 5 3 5 6 4 5 6 5 3 2 2 2 3 2 5 2 2 3 5 6 9 9 7 7 8 5 6 7 7 7 6 6 4 4 4 3
16 14 13 13 15 14 14 15 15 9 2 2 3 4 4 3 4 8 10 6 5 5 5 4 4 4 1 1 1 2 3 5 1 1 4 4 4 7 8 6 5 2 5 7 7 7 8 7 6 5 4 3 4 6
14 15 15 15 16 15 14 14 14 7 4 3 5 6 7 7 7 8 5 5 5 3 5 4 3 4 3 4 3 4 4 2 2 3 4 2 3 7 7 5 6 6 9 8 8 8 7 6 5 4 4 2 3 5
14 15 17 15 15 15 14 12 9 2 3 4 4 6 8 3 1 2 3 1 2 3 2 2 2 4 2 3 3 2 2 5 5 5 3 2 3 4 5 6 9 8 6 6 4 5 6 3 3 3 3 3 3 3
15 11 7 12 13 13 12 8 4 3 4 5 5 2 1 3 2 1 2 2 2 2 2 1 4 4 5 4 4 7 4 5 4 3 3 1 1 1 4 5 6 7 5 4 3 2 1 1 2 3 5 3 3 4
11 1 14 15 13 11 14 3 3 5 5 5 3 1 2 2 2 2 3 3 1 3 4 3 5 6 3 3 4 5 5 3 4 2 2 3 2 3 3 4 3 5 5 2 2 2 2 3 3 3 6 4 5 5
2 6 17 17 11 6 3 2 3 5 7 5 2 3 3 2 3 2 1 1 2 1 1 1 1 3 5 6 3 3 2 1 2 3 2 3 3 3 1 2 3 3 3 2 3 2 1 2 3 4 6 5 5 5
6 9 19 19 7 3 2 3 3 3 4 2 0 4 3 3 1 1 1 0 2 1 2 1 3 4 4 3 4 3 3 4 4 4 4 4 5 4 3 3 4 3 3 1 1 3 3 5 5 4 4 3 3 5
11 15 19 18 8 2 4 3 3 2 2 2 2 3 2 4 1 2 2 2 3 2 2 3 3 2 4 3 3 4 4 5 4 3 3 3 4 3 4 4 4 3 4 4 4 5 3 4 3 4 4 4 3 5
7 7 15 8 1 1 1 3 3 3 4 3 3 3 1 2 3 4 4 3 3 4 4 3 7 7 3 1 2 3 5 5 5 5 5 4 3 2 4 4 5 3 4 3 4 6 6 5 5 4 4 5 4 5
0 10 3 1 1 2 2 2 2 2 2 2 1 2 3 3 4 4 3 2 4 5 7 9 12 10 5 6 6 6 7 7 5 2 3 2 3 3 5 6 3 5 5 7 5 6 6 6 5 4 4 7 5 6
6 3 3 2 1 2 4 1 2 1 1 1 2 3 2 3 4 3 3 5 6 7 7 7 8 8 9 9 4 5 7 7 5 5 6 6 6 6 4 6 5 6 7 8 6 6 7 8 6 6 6 6 5 6
3 3 3 5 4 3 2 2 2 2 0 1 1 2 3 2 1 3 4 4 4 2 4 8 6 4 1 1 4 5 5 5 5 4 5 4 4 8 7 8 6 7 9 8 6 6 6 7 8 6 7 7 7 7
3 4 4 4 3 4 4 2 3 2 4 5 4 4 5 1 3 4 4 4 4 4 6 5 5 7 8 6 4 5 5 5 6 7 8 8 8 4 4 6 7 8 5 5 8 8 9 7 7 7 8 8 9 10
3 3 4 6 3 4 4 2 4 4 3 3 4 3 2 3 3 6 3 3 2 3 3 5 6 4 4 6 5 4 7 6 5 6 9 6 7 7 7 5 5 7 5 8 7 8 10 9 9 10 9 10 12 10
2 4 3 2 2 2 2 1 0 2 4 5 3 3 3 3 5 4 2 3 2 3 2 2 4 5 6 4 5 6 3 5 7 6 3 4 5 7 7 6 7 8 4 6 7 9 10 9 9 8 8 6 5 4
3 2 3 5 3 3 3 3 4 6 5 4 3 4 4 5 4 3 3 2 4 3 3 2 3 4 4 5 3 2 3 3 4 2 2 4 5 5 6 7 8 13 8 8 9 8 8 9 9 9 6 6 4 5
3 2 2 3 2 4 5 5 4 4 3 4 4 3 4 4 3 2 3 2 1 2 4 5 3 1 2 3 3 4 4 3 5 6 7 5 4 5 4 5 5 5 5 6 10 12 12 10 9 8 7 6 5 4
4 3 3 4 4 6 5 6 4 3 2 3 2 3 3 3 5 3 3 3 4 5 6 5 4 1 4 4 4 5 4 5 6 7 6 8 7 7 4 6 6 6 4 5 6 6 4 5 6 3 3 4 4 5
2 4 3 4 5 4 5 4 3 2 2 4 4 5 8 5 4 4 6 7 7 6 4 5 4 3 4 4 4 4 7 5 6 10 11 8 7 6 7 7 7 6 5 5 4 4 5 3 4 5 6 8 9 8
3 6 4 4 4 4 2 4 6 6 5 3 6 4 3 2 4 4 2 1 2 3 5 3 2 2 4 3 4 4 9 6 9 9 10 6 7 8 8 6 6 6 6 4 5 7 8 8 6 5 7 9 6 6
3 2 3 2 3 3 2 1 3 4 2 2 4 3 4 5 6 3 1 1 1 2 3 1 1 3 5 6 6 6 8 6 8 9 10 8 9 7 4 4 4 5 6 7 8 8 9 10 9 10 10 9 8 5
Wind_Direction
257 256 262 268 271 280 282 276 288 300 309 321 335 349 357 2 2 24 280 2 86 243 274 207 245 187 136 103 128 280 25 347 20 60 99 245 141 290 2 280 205 154 117 190 79 90 266 193 163 181 227 328 316 305
249 255 257 260 264 270 272 273 269 276 294 302 317 336 350 357 359 10 2 2 346 164 253 263 254 267 228 192 145 334 184 214 198 84 35 121 340 12 148 282 350 319 177 190 174 219 247 272 247 269 173 228 318 322
258 261 263 262 262 263 263 263 262 261 264 281 298 313 338 350 2 32 280 304 23 22 299 344 240 234 116 202 182 142 273 200 172 169 154 160 260 127 198 245 278 255 155 188 24 283 251 261 253 245 233 231 265 277
267 263 267 268 266 262 260 257 252 248 253 256 267 294 311 328 346 18 336 288 87 111 9 283 355 287 268 206 189 179 146 70 101 69 99 130 209 161 221 231 181 202 135 178 268 283 289 273 250 270 246 216 271 293
261 266 275 277 272 267 262 255 247 239 236 247 250 257 290 313 328 343 204 250 235 112 246 280 311 271 282 238 203 163 144 118 110 66 93 228 231 139 261 30 246 181 188 164 225 248 214 270 328 273 185 198 217 317
245 255 260 266 274 272 267 258 241 231 227 229 235 246 259 302 343 21 9 322 317 155 65 318 299 296 311 266 184 179 152 127 124 152 203 252 261 131 196 242 258 228 196 168 219 226 213 262 266 249 277 259 256 255
240 245 256 261 266 272 272 262 236 221 217 218 222 227 234 243 97 169 202 197 128 96 72 310 316 292 302 322 71 101 91 149 135 164 196 203 276 131 175 235 237 237 223 211 219 214 290 234 280 315 272 277 251 241
246 242 241 246 259 268 271 265 232 214 211 208 208 208 197 230 303 318 256 226 146 83 82 262 271 328 9 343 74 13 111 57 325 177 85 179 12 67 259 245 260 251 271 241 205 199 222 286 324 332 276 33 36 16
244 244 239 237 240 260 267 253 220 203 200 206 188 152 124 166 206 227 87 134 146 141 186 178 225 254 353 353 279 33 75 100 328 192 239 114 213 228 229 247 256 236 201 219 144 193 206 230 268 286 38 46 44 357
249 245 245 243 238 237 254 218 202 188 174 204 140 196 191 208 165 127 42 58 324 246 144 234 171 257 86 7 353 82 31 161 199 245 111 154 251 267 272 245 251 262 222 173 121 141 196 201 184 155 66 66 63 348
242 245 248 242 237 237 207 190 187 163 159 222 181 217 96 132 90 95 149 194 169 232 204 222 192 214 253 133 223 185 170 154 159 260 146 237 271 267 301 296 255 218 197 226 237 50 151 137 144 120 108 56 33 16
251 246 244 238 229 206 182 172 185 187 173 240 191 141 113 151 117 157 195 181 206 231 207 175 198 190 260 116 126 225 158 90 241 159 142 250 256 287 316 314 315 195 186 214 194 165 137 123 121 105 72 41 23 358
240 239 240 240 192 178 177 176 181 233 303 231 225 160 152 167 153 190 192 196 201 202 188 178 177 163 97 128 160 129 153 227 75 169 223 225 287 313 314 321 3 132 142 124 113 112 115 103 95 86 82 28 15 27
232 239 221 206 181 181 182 188 184 215 272 233 199 189 194 184 215 189 188 169 216 154 153 167 130 161 171 144 163 151 227 97 234 220 220 242 294 307 328 9 43 50 92 92 80 78 78 96 121 112 83 35 28 24
235 224 184 185 176 178 184 192 171 140 290 245 206 223 203 224 228 179 181 114 220 169 138 100 58 127 152 149 191 107 161 240 216 214 187 231 293 302 20 48 59 49 52 63 78 97 108 104 66 39 29 10 20 349
215 174 163 167 181 179 177 158 151 143 240 262 227 228 147 122 212 170 155 217 219 187 131 139 159 168 187 158 140 204 182 223 215 189 198 182 303 4 77 76 81 67 34 62 71 50 43 64 8 317 317 332 341 327
159 138 155 160 168 151 160 150 144 187 232 249 252 341 156 122 167 157 149 186 160 147 189 162 192 190 119 151 197 173 205 232 157 146 188 207 160 123 73 53 77 148 161 254 30 324 284 306 327 319 309 300 312 302
97 157 154 152 139 129 170 219 186 204 231 237 230 236 211 192 132 112 143 257 100 105 97 251 128 173 179 162 196 185 155 125 115 158 226 242 253 264 237 285 309 302 295 248 223 249 298 331 314 282 282 287 294 292
146 151 161 153 142 133 156 148 243 232 237 264 154 267 183 132 70 69 122 87 79 77 2 272 198 198 183 206 171 170 153 157 177 203 226 218 220 247 282 296 296 301 291 284 242 269 271 259 250 270 272 268 261 285
154 164 165 163 144 158 185 200 197 168 260 243 233 225 129 125 159 192 158 218 151 121 251 234 219 222 196 223 187 160 162 167 155 189 251 251 226 218 266 269 263 254 275 278 266 239 257 282 246 245 256 259 257 270
134 173 169 157 171 308 257 186 202 218 191 217 224 136 85 27 337 326 287 126 141 192 220 218 281 264 286 325 216 168 156 159 188 182 214 265 280 209 268 269 266 253 226 231 240 263 239 243 250 260 268 280 260 248
69 144 101 103 172 247 262 234 232 213 203 230 168 180 156 187 217 217 148 163 208 214 204 209 226 236 221 228 220 205 210 189 212 202 278 207 256 243 254 251 227 252 244 251 240 249 255 249 243 233 247 264 249 266
103 92 85 101 168 240 261 179 254 258 247 280 85 152 217 214 215 109 205 205 226 211 199 200 212 210 217 233 190 208 205 189 205 216 232 227 236 244 237 255 223 232 259 268 242 240 252 259 256 256 255 255 258 272
127 100 154 174 183 208 291 231 227 206 220 322 204 295 318 270 130 180 226 230 234 197 183 212 197 200 224 224 205 217 224 185 216 236 227 208 235 260 233 242 243 226 228 250 257 249 244 250 252 254 254 256 262 249
154 174 164 194 178 194 195 232 185 197 223 173 223 176 167 253 324 305 251 248 220 224 228 205 183 207 217 230 233 230 218 172 199 224 244 203 228 264 271 244 242 240 226 216 246 243 253 256 251 245 250 247 250 258
222 186 211 172 164 193 192 194 211 212 203 168 240 245 132 172 211 241 229 248 247 235 239 197 188 186 221 214 223 228 238 184 182 207 249 183 199 208 232 236 260 279 190 209 231 242 249 246 241 247 250 250 247 247
233 198 176 229 184 172 218 287 343 160 210 215 228 188 176 228 231 241 246 214 216 260 264 208 183 194 224 222 222 243 195 174 190 208 196 170 205 210 205 209 231 245 234 213 220 225 242 255 247 247 244 242 235 241
250 275 210 180 204 162 222 226 202 207 216 211 150 188 206 214 236 240 207 214 227 264 268 264 212 209 227 232 225 246 260 218 235 254 289 267 234 227 220 230 241 254 261 253 244 233 231 238 240 242 231 254 248 248
226 195 192 192 199 219 213 216 240 231 204 152 183 226 237 230 232 235 262 238 232 346 336 324 314 124 300 292 260 229 225 181 176 215 227 243 279 277 211 218 234 241 242 257 247 227 241 231 233 220 220 226 229 219
233 191 206 204 223 215 220 192 231 246 214 208 222 299 291 274 252 249 267 263 246 251 241 220 232 224 264 261 267 281 218 196 196 201 221 236 237 251 241 251 254 257 236 240 258 266 267 239 243 243 234 237 223 227
189 174 218 211 234 231 227 242 276 272 233 235 214 220 261 270 288 242 226 243 248 250 231 243 252 220 229 257 248 270 286 280 230 232 236 248 255 250 246 246 247 255 235 243 262 232 233 229 224 230 243 237 229 220
183 198 190 227 264 261 242 231 247 247 254 237 269 217 276 273 270 280 288 352 311 255 243 206 182 248 204 217 229 232 234 263 274 277 273 250 236 238 243 247 244 256 255 239 244 255 253 232 224 223 239 236 229 223
196 176 194 269 283 267 284 202 259 295 276 250 259 225 222 199 225 257 290 199 135 106 72 58 309 284 275 262 251 265 254 254 264 286 294 283 263 266 269 251 232 219 237 251 249 240 236 234 237 234 230 225 220 199